Time,TemperatureF,DewpointF,PressureIn,WindDirection,WindDirectionDegrees,WindSpeedMPH,WindSpeedGustMPH,Humidity,HourlyPrecipIn,Conditions,Clouds,dailyrainin,SoftwareType,DateUTC
2013-03-05 00:03:00,33.1,23.0,29.98,WNW,302,3.0,3.0,66,0.00,,,0.00,Wunderground v.1.15,2013-03-05 05:03:00,
2013-03-05 00:07:00,33.0,22.9,29.98,NNW,344,2.0,3.0,66,0.00,,,0.00,Wunderground v.1.15,2013-03-05 05:07:00,
2013-03-05 00:17:00,33.0,22.9,29.98,NW,315,2.0,2.0,66,0.00,,,0.00,Wunderground v.1.15,2013-03-05 05:17:00,
2013-03-05 00:22:00,33.0,22.9,29.98,WNW,295,1.0,2.0,66,0.00,,,0.00,Wunderground v.1.15,2013-03-05 05:22:00,
2013-03-05 00:32:00,33.0,22.9,29.98,West,267,2.0,2.0,66,0.00,,,0.00,Wunderground v.1.15,2013-03-05 05:32:00,
2013-03-05 00:42:00,33.0,22.9,29.99,NNE,27,2.0,5.0,66,0.00,,,0.00,Wunderground v.1.15,2013-03-05 05:42:00,
2013-03-05 00:47:00,33.0,22.9,29.99,North,350,2.0,5.0,66,0.00,,,0.00,Wunderground v.1.15,2013-03-05 05:47:00,
2013-03-05 00:52:00,33.0,22.9,29.99,NNE,20,2.0,3.0,66,0.00,,,0.00,Wunderground v.1.15,2013-03-05 05:52:00,
2013-03-05 01:02:00,32.9,22.8,29.99,NW,315,2.0,3.0,66,0.00,,,0.00,Wunderground v.1.15,2013-03-05 06:02:00,
2013-03-05 01:12:00,32.9,23.1,29.99,NW,309,2.0,2.0,67,0.00,,,0.00,Wunderground v.1.15,2013-03-05 06:12:00,
2013-03-05 01:17:00,32.9,22.8,29.99,West,268,2.0,3.0,66,0.00,,,0.00,Wunderground v.1.15,2013-03-05 06:17:00,
2013-03-05 01:27:00,32.9,22.8,29.99,North,350,2.0,4.0,66,0.00,,,0.00,Wunderground v.1.15,2013-03-05 06:27:00,
2013-03-05 01:32:00,32.8,23.0,29.99,WNW,286,1.0,1.0,67,0.00,,,0.00,Wunderground v.1.15,2013-03-05 06:32:00,
2013-03-05 01:42:00,32.8,23.0,30.00,West,273,1.0,1.0,67,0.00,,,0.00,Wunderground v.1.15,2013-03-05 06:42:00,
2013-03-05 01:47:00,32.8,23.0,29.99,West,273,1.0,2.0,67,0.00,,,0.00,Wunderground v.1.15,2013-03-05 06:47:00,
2013-03-05 01:57:00,32.8,22.7,29.99,North,5,2.0,2.0,66,0.00,,,0.00,Wunderground v.1.15,2013-03-05 06:57:00,
2013-03-05 02:02:00,32.8,22.7,29.99,WNW,283,2.0,2.0,66,0.00,,,0.00,Wunderground v.1.15,2013-03-05 07:02:00,
2013-03-05 02:08:00,32.8,22.7,29.99,West,277,2.0,2.0,66,0.00,,,0.00,Wunderground v.1.15,2013-03-05 07:08:00,
2013-03-05 02:18:00,32.7,22.9,29.99,North,9,3.0,3.0,67,0.00,,,0.00,Wunderground v.1.15,2013-03-05 07:18:00,
2013-03-05 02:28:00,32.7,22.9,29.99,WNW,294,2.0,3.0,67,0.00,,,0.00,Wunderground v.1.15,2013-03-05 07:28:00,
2013-03-05 02:33:00,32.7,22.9,29.99,WNW,292,2.0,2.0,67,0.00,,,0.00,Wunderground v.1.15,2013-03-05 07:33:00,
2013-03-05 02:42:00,32.6,22.8,29.99,North,355,2.0,4.0,67,0.00,,,0.00,Wunderground v.1.15,2013-03-05 07:42:00,
2013-03-05 02:48:00,32.6,22.8,29.99,North,349,2.0,4.0,67,0.00,,,0.00,Wunderground v.1.15,2013-03-05 07:48:00,
2013-03-05 02:57:00,32.5,22.8,29.99,North,349,2.0,3.0,67,0.00,,,0.00,Wunderground v.1.15,2013-03-05 07:57:00,
2013-03-05 03:03:00,32.5,22.8,29.99,North,355,3.0,9.0,67,0.00,,,0.00,Wunderground v.1.15,2013-03-05 08:03:00,
2013-03-05 03:12:00,32.4,22.7,29.98,WNW,292,3.0,3.0,67,0.00,,,0.00,Wunderground v.1.15,2013-03-05 08:12:00,
2013-03-05 03:18:00,32.3,22.6,29.99,WNW,294,3.0,4.0,67,0.00,,,0.00,Wunderground v.1.15,2013-03-05 08:18:00,
2013-03-05 03:28:00,32.1,22.4,29.99,WNW,286,3.0,3.0,67,0.00,,,0.00,Wunderground v.1.15,2013-03-05 08:28:00,
2013-03-05 03:33:00,32.0,22.6,29.99,West,277,2.0,2.0,68,0.00,,,0.00,Wunderground v.1.15,2013-03-05 08:33:00,
2013-03-05 03:42:00,31.9,22.5,29.99,North,355,1.0,3.0,68,0.00,,,0.00,Wunderground v.1.15,2013-03-05 08:42:00,
2013-03-05 03:48:00,31.8,22.4,29.99,WNW,288,1.0,3.0,68,0.00,,,0.00,Wunderground v.1.15,2013-03-05 08:48:00,
2013-03-05 03:57:00,31.7,22.3,29.99,North,355,1.0,2.0,68,0.00,,,0.00,Wunderground v.1.15,2013-03-05 08:57:00,
2013-03-05 04:03:00,31.6,22.2,29.99,NW,322,1.0,1.0,68,0.00,,,0.00,Wunderground v.1.15,2013-03-05 09:03:00,
2013-03-05 04:12:00,31.5,22.5,30.00,WNW,288,1.0,1.0,69,0.00,,,0.00,Wunderground v.1.15,2013-03-05 09:12:00,
2013-03-05 04:18:00,31.3,22.3,30.00,WNW,297,0.0,2.0,69,0.00,,,0.00,Wunderground v.1.15,2013-03-05 09:18:00,
2013-03-05 04:27:00,31.2,22.5,30.00,NNW,344,2.0,3.0,70,0.00,,,0.00,Wunderground v.1.15,2013-03-05 09:27:00,
2013-03-05 04:33:00,31.4,22.7,30.00,North,360,2.0,2.0,70,0.00,,,0.00,Wunderground v.1.15,2013-03-05 09:33:00,
2013-03-05 04:42:00,31.4,22.7,30.00,WNW,289,1.0,1.0,70,0.00,,,0.00,Wunderground v.1.15,2013-03-05 09:42:00,
2013-03-05 04:48:00,31.4,22.4,30.01,WNW,289,1.0,1.0,69,0.00,,,0.00,Wunderground v.1.15,2013-03-05 09:48:00,
2013-03-05 04:57:00,31.3,22.6,30.01,NW,304,1.0,1.0,70,0.00,,,0.00,Wunderground v.1.15,2013-03-05 09:57:00,
2013-03-05 05:03:00,31.3,22.6,30.01,WNW,294,1.0,2.0,70,0.00,,,0.00,Wunderground v.1.15,2013-03-05 10:03:00,
2013-03-05 05:12:00,31.4,22.7,30.02,ENE,64,2.0,4.0,70,0.00,,,0.00,Wunderground v.1.15,2013-03-05 10:12:00,
2013-03-05 05:18:00,31.5,22.8,30.02,ESE,111,2.0,4.0,70,0.00,,,0.00,Wunderground v.1.15,2013-03-05 10:18:00,
2013-03-05 05:27:00,31.4,22.7,30.02,WNW,292,1.0,2.0,70,0.00,,,0.00,Wunderground v.1.15,2013-03-05 10:27:00,
2013-03-05 05:33:00,31.5,22.8,30.02,WNW,292,2.0,2.0,70,0.00,,,0.00,Wunderground v.1.15,2013-03-05 10:33:00,
2013-03-05 05:42:00,31.6,22.6,30.03,West,276,1.0,1.0,69,0.00,,,0.00,Wunderground v.1.15,2013-03-05 10:42:00,
2013-03-05 05:48:00,31.7,22.7,30.03,NNW,346,1.0,1.0,69,0.00,,,0.00,Wunderground v.1.15,2013-03-05 10:48:00,
2013-03-05 05:57:00,31.9,22.5,30.03,NNW,331,1.0,1.0,68,0.00,,,0.00,Wunderground v.1.15,2013-03-05 10:57:00,
2013-03-05 06:03:00,31.9,22.9,30.03,NW,311,1.0,1.0,69,0.00,,,0.00,Wunderground v.1.15,2013-03-05 11:03:00,
2013-03-05 06:12:00,32.0,23.0,30.03,NW,305,0.0,0.0,69,0.00,,,0.00,Wunderground v.1.15,2013-03-05 11:12:00,
2013-03-05 06:18:00,31.9,22.9,30.03,WNW,296,1.0,1.0,69,0.00,,,0.00,Wunderground v.1.15,2013-03-05 11:18:00,
2013-03-05 06:27:00,31.9,22.9,30.03,WNW,296,2.0,2.0,69,0.00,,,0.00,Wunderground v.1.15,2013-03-05 11:27:00,
2013-03-05 06:33:00,32.0,23.0,30.03,WNW,294,1.0,1.0,69,0.00,,,0.00,Wunderground v.1.15,2013-03-05 11:33:00,
2013-03-05 06:42:00,31.9,22.9,30.03,NW,320,1.0,1.0,69,0.00,,,0.00,Wunderground v.1.15,2013-03-05 11:42:00,
2013-03-05 06:48:00,31.8,22.8,30.03,WNW,289,2.0,3.0,69,0.00,,,0.00,Wunderground v.1.15,2013-03-05 11:48:00,
2013-03-05 06:57:00,31.7,22.7,30.03,NNE,22,2.0,2.0,69,0.00,,,0.00,Wunderground v.1.15,2013-03-05 11:57:00,
2013-03-05 07:03:00,31.6,22.9,30.04,South,172,1.0,1.0,70,0.00,,,0.00,Wunderground v.1.15,2013-03-05 12:03:00,
2013-03-05 07:12:00,31.7,23.4,30.04,West,265,0.0,1.0,71,0.00,,,0.00,Wunderground v.1.15,2013-03-05 12:12:00,
2013-03-05 07:18:00,32.0,23.0,30.04,WNW,291,2.0,2.0,69,0.00,,,0.00,Wunderground v.1.15,2013-03-05 12:18:00,
2013-03-05 07:27:00,32.3,23.3,30.04,NNW,330,0.0,2.0,69,0.00,,,0.00,Wunderground v.1.15,2013-03-05 12:27:00,
2013-03-05 07:33:00,32.4,23.4,30.05,NNE,21,1.0,3.0,69,0.00,,,0.00,Wunderground v.1.15,2013-03-05 12:33:00,
2013-03-05 07:42:00,32.8,23.4,30.05,WNW,292,1.0,2.0,68,0.00,,,0.00,Wunderground v.1.15,2013-03-05 12:42:00,
2013-03-05 07:48:00,32.9,23.5,30.05,NNE,32,1.0,2.0,68,0.00,,,0.00,Wunderground v.1.15,2013-03-05 12:48:00,
2013-03-05 07:57:00,33.0,23.2,30.05,NW,315,3.0,4.0,67,0.00,,,0.00,Wunderground v.1.15,2013-03-05 12:57:00,
2013-03-05 08:03:00,33.0,23.6,30.05,North,355,3.0,3.0,68,0.00,,,0.00,Wunderground v.1.15,2013-03-05 13:03:00,
2013-03-05 08:12:00,33.2,23.4,30.05,NNE,28,3.0,6.0,67,0.00,,,0.00,Wunderground v.1.15,2013-03-05 13:12:00,
2013-03-05 08:18:00,33.4,23.6,30.05,NNE,20,3.0,6.0,67,0.00,,,0.00,Wunderground v.1.15,2013-03-05 13:18:00,
2013-03-05 08:27:00,34.6,24.0,30.05,NNW,337,3.0,3.0,65,0.00,,,0.00,Wunderground v.1.15,2013-03-05 13:27:00,
2013-03-05 08:33:00,35.1,24.1,30.05,North,5,3.0,3.0,64,0.00,,,0.00,Wunderground v.1.15,2013-03-05 13:33:00,
2013-03-05 08:42:00,34.9,23.9,30.05,North,5,5.0,10.0,64,0.00,,,0.00,Wunderground v.1.15,2013-03-05 13:42:00,
2013-03-05 08:48:00,34.7,23.4,30.05,NNE,33,5.0,10.0,63,0.00,,,0.00,Wunderground v.1.15,2013-03-05 13:48:00,
2013-03-05 08:57:00,35.0,23.7,30.05,NE,46,4.0,7.0,63,0.00,,,0.00,Wunderground v.1.15,2013-03-05 13:57:00,
2013-03-05 09:03:00,35.1,23.8,30.05,WNW,294,4.0,4.0,63,0.00,,,0.00,Wunderground v.1.15,2013-03-05 14:03:00,
2013-03-05 09:12:00,35.4,23.7,30.05,North,360,3.0,3.0,62,0.00,,,0.00,Wunderground v.1.15,2013-03-05 14:12:00,
2013-03-05 09:18:00,35.6,24.2,30.05,NW,305,3.0,3.0,63,0.00,,,0.00,Wunderground v.1.15,2013-03-05 14:18:00,
2013-03-05 09:27:00,36.0,24.2,30.05,ENE,58,3.0,3.0,62,0.00,,,0.00,Wunderground v.1.15,2013-03-05 14:27:00,
2013-03-05 09:33:00,36.1,23.9,30.05,WNW,302,3.0,3.0,61,0.00,,,0.00,Wunderground v.1.15,2013-03-05 14:33:00,
2013-03-05 09:42:00,36.0,23.8,30.05,WNW,290,3.0,3.0,61,0.00,,,0.00,Wunderground v.1.15,2013-03-05 14:42:00,
2013-03-05 09:48:00,36.3,24.1,30.05,NNE,13,3.0,3.0,61,0.00,,,0.00,Wunderground v.1.15,2013-03-05 14:48:00,
2013-03-05 09:57:00,36.8,24.6,30.05,NNE,15,2.0,5.0,61,0.00,,,0.00,Wunderground v.1.15,2013-03-05 14:57:00,
2013-03-05 10:02:00,37.0,25.2,30.05,East,101,2.0,2.0,62,0.00,,,0.00,Wunderground v.1.15,2013-03-05 15:02:00,
2013-03-05 10:12:00,37.7,24.2,30.05,ENE,61,3.0,3.0,58,0.00,,,0.00,Wunderground v.1.15,2013-03-05 15:12:00,
2013-03-05 10:18:00,37.6,24.6,30.05,ENE,64,4.0,4.0,59,0.00,,,0.00,Wunderground v.1.15,2013-03-05 15:18:00,
2013-03-05 10:27:00,37.3,23.9,30.05,NNW,344,4.0,4.0,58,0.00,,,0.00,Wunderground v.1.15,2013-03-05 15:27:00,
2013-03-05 10:32:00,37.7,25.5,30.04,WSW,237,2.0,2.0,61,0.00,,,0.00,Wunderground v.1.15,2013-03-05 15:32:00,
2013-03-05 10:42:00,38.6,25.1,30.04,North,355,2.0,2.0,58,0.00,,,0.00,Wunderground v.1.15,2013-03-05 15:42:00,
2013-03-05 10:47:00,38.8,24.9,30.04,NE,51,2.0,4.0,57,0.00,,,0.00,Wunderground v.1.15,2013-03-05 15:47:00,
2013-03-05 10:57:00,38.6,25.1,30.04,NNE,13,3.0,3.0,58,0.00,,,0.00,Wunderground v.1.15,2013-03-05 15:57:00,
2013-03-05 11:02:00,39.3,25.7,30.04,NNW,347,2.0,3.0,58,0.00,,,0.00,Wunderground v.1.15,2013-03-05 16:02:00,
2013-03-05 11:12:00,39.8,24.9,30.03,NNE,22,2.0,2.0,55,0.00,,,0.00,Wunderground v.1.15,2013-03-05 16:12:00,
2013-03-05 11:17:00,40.1,26.1,30.03,ENE,57,2.0,2.0,57,0.00,,,0.00,Wunderground v.1.15,2013-03-05 16:17:00,
2013-03-05 11:27:00,40.1,25.2,30.03,NW,324,2.0,7.0,55,0.00,,,0.00,Wunderground v.1.15,2013-03-05 16:27:00,
2013-03-05 11:32:00,40.9,26.0,30.03,NE,53,2.0,4.0,55,0.00,,,0.00,Wunderground v.1.15,2013-03-05 16:32:00,
2013-03-05 11:42:00,40.7,25.8,30.03,NE,51,3.0,4.0,55,0.00,,,0.00,Wunderground v.1.15,2013-03-05 16:42:00,
2013-03-05 11:47:00,40.9,25.5,30.02,East,90,3.0,4.0,54,0.00,,,0.00,Wunderground v.1.15,2013-03-05 16:47:00,
2013-03-05 11:57:00,41.3,25.9,30.03,NW,309,2.0,2.0,54,0.00,,,0.00,Wunderground v.1.15,2013-03-05 16:57:00,
2013-03-05 12:02:00,41.4,26.0,30.02,North,11,3.0,4.0,54,0.00,,,0.00,Wunderground v.1.15,2013-03-05 17:02:00,
2013-03-05 12:12:00,41.8,26.4,30.02,NE,55,3.0,3.0,54,0.00,,,0.00,Wunderground v.1.15,2013-03-05 17:12:00,
2013-03-05 12:17:00,41.9,26.0,30.02,NNE,32,2.0,3.0,53,0.00,,,0.00,Wunderground v.1.15,2013-03-05 17:17:00,
2013-03-05 12:27:00,43.1,26.7,30.02,WNW,297,1.0,2.0,52,0.00,,,0.00,Wunderground v.1.15,2013-03-05 17:27:00,
2013-03-05 12:32:00,43.0,26.6,30.02,NE,56,2.0,2.0,52,0.00,,,0.00,Wunderground v.1.15,2013-03-05 17:32:00,
2013-03-05 12:42:00,43.0,26.6,30.01,ENE,60,1.0,10.0,52,0.00,,,0.00,Wunderground v.1.15,2013-03-05 17:42:00,
2013-03-05 12:47:00,42.9,26.5,30.01,NE,44,3.0,10.0,52,0.00,,,0.00,Wunderground v.1.15,2013-03-05 17:47:00,
2013-03-05 12:56:00,43.1,26.7,30.01,NNE,18,2.0,3.0,52,0.00,,,0.00,Wunderground v.1.15,2013-03-05 17:56:00,
2013-03-05 13:02:00,43.1,26.7,30.01,ENE,65,2.0,2.0,52,0.00,,,0.00,Wunderground v.1.15,2013-03-05 18:02:00,
2013-03-05 13:08:00,43.5,27.0,30.01,NE,53,2.0,3.0,52,0.00,,,0.00,Wunderground v.1.15,2013-03-05 18:08:00,
2013-03-05 13:18:00,43.5,27.0,30.01,NW,315,3.0,4.0,52,0.00,,,0.00,Wunderground v.1.15,2013-03-05 18:18:00,
2013-03-05 13:28:00,44.1,26.6,30.01,ENE,78,1.0,2.0,50,0.00,,,0.00,Wunderground v.1.15,2013-03-05 18:28:00,
2013-03-05 13:33:00,44.8,27.3,30.00,NW,314,1.0,1.0,50,0.00,,,0.00,Wunderground v.1.15,2013-03-05 18:33:00,
2013-03-05 13:43:00,46.2,27.1,30.00,NE,38,1.0,2.0,47,0.00,,,0.00,Wunderground v.1.15,2013-03-05 18:43:00,
2013-03-05 13:48:00,45.4,26.8,30.00,NE,37,3.0,4.0,48,0.00,,,0.00,Wunderground v.1.15,2013-03-05 18:48:00,
2013-03-05 13:58:00,44.7,26.7,30.00,NE,52,2.0,3.0,49,0.00,,,0.00,Wunderground v.1.15,2013-03-05 18:58:00,
2013-03-05 14:08:00,45.5,27.4,30.00,SSW,205,2.0,4.0,49,0.00,,,0.00,Wunderground v.1.15,2013-03-05 19:08:00,
2013-03-05 14:18:00,46.3,27.2,30.00,SE,144,1.0,2.0,47,0.00,,,0.00,Wunderground v.1.15,2013-03-05 19:18:00,
2013-03-05 14:28:00,47.0,27.3,29.99,SE,133,0.0,1.0,46,0.00,,,0.00,Wunderground v.1.15,2013-03-05 19:28:00,
2013-03-05 14:33:00,46.5,27.3,30.00,ENE,69,2.0,3.0,47,0.00,,,0.00,Wunderground v.1.15,2013-03-05 19:33:00,
2013-03-05 14:42:00,45.7,27.1,29.99,North,10,1.0,1.0,48,0.00,,,0.00,Wunderground v.1.15,2013-03-05 19:42:00,
2013-03-05 14:48:00,46.0,26.9,29.98,NE,53,1.0,3.0,47,0.00,,,0.00,Wunderground v.1.15,2013-03-05 19:48:00,
2013-03-05 14:57:00,46.5,27.8,29.99,ENE,78,2.0,3.0,48,0.00,,,0.00,Wunderground v.1.15,2013-03-05 19:57:00,
2013-03-05 15:03:00,46.3,27.7,29.99,ENE,59,3.0,3.0,48,0.00,,,0.00,Wunderground v.1.15,2013-03-05 20:03:00,
2013-03-05 15:13:00,46.5,26.8,29.99,East,101,2.0,2.0,46,0.00,,,0.00,Wunderground v.1.15,2013-03-05 20:13:00,
2013-03-05 15:18:00,46.4,26.7,29.98,ENE,57,2.0,2.0,46,0.00,,,0.00,Wunderground v.1.15,2013-03-05 20:18:00,
2013-03-05 15:27:00,46.2,27.1,29.98,ESE,114,2.0,3.0,47,0.00,,,0.00,Wunderground v.1.15,2013-03-05 20:27:00,
2013-03-05 15:33:00,46.3,27.2,29.98,NNE,19,1.0,1.0,47,0.00,,,0.00,Wunderground v.1.15,2013-03-05 20:33:00,
2013-03-05 15:43:00,46.2,27.6,29.98,West,277,2.0,2.0,48,0.00,,,0.00,Wunderground v.1.15,2013-03-05 20:43:00,
2013-03-05 15:48:00,46.0,26.9,29.97,NNW,340,2.0,2.0,47,0.00,,,0.00,Wunderground v.1.15,2013-03-05 20:48:00,
2013-03-05 15:58:00,46.2,27.1,29.97,NNE,16,3.0,3.0,47,0.00,,,0.00,Wunderground v.1.15,2013-03-05 20:58:00,
2013-03-05 16:03:00,46.1,27.0,29.97,East,88,3.0,5.0,47,0.00,,,0.00,Wunderground v.1.15,2013-03-05 21:03:00,
2013-03-05 16:13:00,46.1,27.0,29.97,NNE,18,2.0,4.0,47,0.00,,,0.00,Wunderground v.1.15,2013-03-05 21:13:00,
2013-03-05 16:18:00,46.0,26.9,29.97,ENE,74,2.0,4.0,47,0.00,,,0.00,Wunderground v.1.15,2013-03-05 21:18:00,
2013-03-05 16:28:00,46.0,26.9,29.97,NE,53,2.0,2.0,47,0.00,,,0.00,Wunderground v.1.15,2013-03-05 21:28:00,
2013-03-05 16:33:00,46.1,28.0,29.97,ENE,59,1.0,2.0,49,0.00,,,0.00,Wunderground v.1.15,2013-03-05 21:33:00,
2013-03-05 16:42:00,46.2,27.6,29.97,East,81,2.0,2.0,48,0.00,,,0.00,Wunderground v.1.15,2013-03-05 21:42:00,
2013-03-05 16:48:00,46.1,27.5,29.96,East,86,2.0,3.0,48,0.00,,,0.00,Wunderground v.1.15,2013-03-05 21:48:00,
2013-03-05 16:57:00,45.8,27.2,29.97,NE,55,2.0,3.0,48,0.00,,,0.00,Wunderground v.1.15,2013-03-05 21:57:00,
2013-03-05 17:03:00,45.7,26.6,29.97,East,88,2.0,2.0,47,0.00,,,0.00,Wunderground v.1.15,2013-03-05 22:03:00,
2013-03-05 17:12:00,45.6,26.5,29.97,NE,51,2.0,3.0,47,0.00,,,0.00,Wunderground v.1.15,2013-03-05 22:12:00,
2013-03-05 17:18:00,45.4,26.8,29.97,ENE,78,2.0,3.0,48,0.00,,,0.00,Wunderground v.1.15,2013-03-05 22:18:00,
2013-03-05 17:27:00,45.1,27.1,29.98,ENE,78,1.0,2.0,49,0.00,,,0.00,Wunderground v.1.15,2013-03-05 22:27:00,
2013-03-05 17:33:00,44.9,26.9,29.98,ENE,69,1.0,1.0,49,0.00,,,0.00,Wunderground v.1.15,2013-03-05 22:33:00,
2013-03-05 17:42:00,44.5,26.5,29.98,ENE,77,1.0,1.0,49,0.00,,,0.00,Wunderground v.1.15,2013-03-05 22:42:00,
2013-03-05 17:48:00,44.2,26.7,29.98,ENE,77,1.0,1.0,50,0.00,,,0.00,Wunderground v.1.15,2013-03-05 22:48:00,
2013-03-05 17:57:00,43.8,26.8,29.99,East,92,0.0,1.0,51,0.00,,,0.00,Wunderground v.1.15,2013-03-05 22:57:00,
2013-03-05 18:03:00,43.5,26.6,29.99,ENE,76,0.0,0.0,51,0.00,,,0.00,Wunderground v.1.15,2013-03-05 23:03:00,
2013-03-05 18:12:00,42.8,26.8,29.99,ENE,76,0.0,0.0,53,0.00,,,0.00,Wunderground v.1.15,2013-03-05 23:12:00,
2013-03-05 18:18:00,42.3,26.4,29.98,ENE,76,0.0,0.0,53,0.00,,,0.00,Wunderground v.1.15,2013-03-05 23:18:00,
2013-03-05 18:27:00,41.6,26.2,29.99,ENE,76,0.0,0.0,54,0.00,,,0.00,Wunderground v.1.15,2013-03-05 23:27:00,
2013-03-05 18:33:00,41.4,26.0,29.99,ENE,76,0.0,0.0,54,0.00,,,0.00,Wunderground v.1.15,2013-03-05 23:33:00,
2013-03-05 18:42:00,41.0,26.1,30.00,ENE,76,0.0,0.0,55,0.00,,,0.00,Wunderground v.1.15,2013-03-05 23:42:00,
2013-03-05 18:48:00,40.7,26.2,30.00,ENE,76,0.0,0.0,56,0.00,,,0.00,Wunderground v.1.15,2013-03-05 23:48:00,
2013-03-05 18:57:00,40.0,26.4,30.00,ENE,76,0.0,0.0,58,0.00,,,0.00,Wunderground v.1.15,2013-03-05 23:57:00,
2013-03-05 19:03:00,39.3,26.2,30.00,ENE,76,0.0,0.0,59,0.00,,,0.00,Wunderground v.1.15,2013-03-06 00:03:00,
2013-03-05 19:12:00,38.3,25.6,30.00,ENE,76,0.0,0.0,60,0.00,,,0.00,Wunderground v.1.15,2013-03-06 00:12:00,
2013-03-05 19:18:00,37.9,27.2,30.00,ENE,76,0.0,0.0,65,0.00,,,0.00,Wunderground v.1.15,2013-03-06 00:18:00,
2013-03-05 19:27:00,37.2,25.8,30.00,ENE,76,0.0,0.0,63,0.00,,,0.00,Wunderground v.1.15,2013-03-06 00:27:00,
2013-03-05 19:33:00,36.8,25.8,30.00,ENE,76,0.0,0.0,64,0.00,,,0.00,Wunderground v.1.15,2013-03-06 00:33:00,
2013-03-05 19:42:00,36.1,25.5,30.00,ENE,76,0.0,0.0,65,0.00,,,0.00,Wunderground v.1.15,2013-03-06 00:42:00,
2013-03-05 19:48:00,35.7,25.4,30.00,ENE,76,0.0,0.0,66,0.00,,,0.00,Wunderground v.1.15,2013-03-06 00:48:00,
2013-03-05 19:57:00,35.1,25.2,29.99,ENE,76,0.0,0.0,67,0.00,,,0.00,Wunderground v.1.15,2013-03-06 00:57:00,
2013-03-05 20:03:00,34.6,25.5,29.99,ENE,76,0.0,0.0,69,0.00,,,0.00,Wunderground v.1.15,2013-03-06 01:03:00,
2013-03-05 20:12:00,33.9,25.1,29.99,ENE,76,0.0,0.0,70,0.00,,,0.00,Wunderground v.1.15,2013-03-06 01:12:00,
2013-03-05 20:18:00,33.6,25.2,29.99,ENE,76,0.0,0.0,71,0.00,,,0.00,Wunderground v.1.15,2013-03-06 01:18:00,
2013-03-05 20:27:00,33.0,25.3,29.99,ENE,76,0.0,0.0,73,0.00,,,0.00,Wunderground v.1.15,2013-03-06 01:27:00,
2013-03-05 20:33:00,32.8,25.1,29.99,ENE,76,0.0,0.0,73,0.00,,,0.00,Wunderground v.1.15,2013-03-06 01:33:00,
2013-03-05 20:42:00,32.5,25.5,29.99,ENE,76,0.0,0.0,75,0.00,,,0.00,Wunderground v.1.15,2013-03-06 01:42:00,
2013-03-05 20:48:00,32.6,25.6,29.99,ENE,76,0.0,0.0,75,0.00,,,0.00,Wunderground v.1.15,2013-03-06 01:48:00,
2013-03-05 20:57:00,32.9,25.8,30.00,ENE,76,0.0,0.0,75,0.00,,,0.00,Wunderground v.1.15,2013-03-06 01:57:00,
2013-03-05 21:03:00,33.0,25.9,30.00,ENE,76,0.0,0.0,75,0.00,,,0.00,Wunderground v.1.15,2013-03-06 02:03:00,
2013-03-05 21:12:00,33.0,25.6,30.00,ENE,76,0.0,0.0,74,0.00,,,0.00,Wunderground v.1.15,2013-03-06 02:12:00,
2013-03-05 21:18:00,33.0,25.9,30.00,ENE,76,0.0,0.0,75,0.00,,,0.00,Wunderground v.1.15,2013-03-06 02:18:00,
2013-03-05 21:27:00,33.3,26.2,30.00,ENE,76,0.0,0.0,75,0.00,,,0.00,Wunderground v.1.15,2013-03-06 02:27:00,
2013-03-05 21:37:00,34.2,27.4,30.00,ENE,76,0.0,0.0,76,0.00,,,0.00,Wunderground v.1.15,2013-03-06 02:37:00,
2013-03-05 21:48:00,34.6,28.4,30.00,ENE,76,0.0,0.0,78,0.00,,,0.00,Wunderground v.1.15,2013-03-06 02:48:00,
2013-03-05 21:57:00,34.7,28.5,30.00,ENE,76,0.0,0.0,78,0.00,,,0.00,Wunderground v.1.15,2013-03-06 02:57:00,
2013-03-05 22:03:00,34.8,28.6,30.00,ENE,76,0.0,0.0,78,0.00,,,0.00,Wunderground v.1.15,2013-03-06 03:03:00,
2013-03-05 22:12:00,35.0,28.5,30.00,ENE,76,0.0,0.0,77,0.00,,,0.00,Wunderground v.1.15,2013-03-06 03:12:00,
2013-03-05 22:18:00,35.3,29.4,30.00,ENE,76,0.0,0.0,79,0.00,,,0.00,Wunderground v.1.15,2013-03-06 03:18:00,
2013-03-05 22:27:00,35.9,28.7,29.99,ENE,76,0.0,0.0,75,0.00,,,0.00,Wunderground v.1.15,2013-03-06 03:27:00,
2013-03-05 22:33:00,36.0,28.5,29.99,ENE,76,0.0,0.0,74,0.00,,,0.00,Wunderground v.1.15,2013-03-06 03:33:00,
2013-03-05 22:42:00,36.2,28.4,29.99,ENE,76,0.0,0.0,73,0.00,,,0.00,Wunderground v.1.15,2013-03-06 03:42:00,
2013-03-05 22:48:00,36.1,28.3,29.99,ENE,76,0.0,0.0,73,0.00,,,0.00,Wunderground v.1.15,2013-03-06 03:48:00,
2013-03-05 22:57:00,35.9,27.7,29.99,ENE,76,0.0,0.0,72,0.00,,,0.00,Wunderground v.1.15,2013-03-06 03:57:00,
2013-03-05 23:02:00,35.7,27.9,29.99,ENE,76,0.0,0.0,73,0.00,,,0.00,Wunderground v.1.15,2013-03-06 04:02:00,
2013-03-05 23:12:00,35.4,27.3,29.98,ENE,76,0.0,0.0,72,0.00,,,0.00,Wunderground v.1.15,2013-03-06 04:12:00,
2013-03-05 23:17:00,35.2,27.4,29.98,ENE,76,0.0,0.0,73,0.00,,,0.00,Wunderground v.1.15,2013-03-06 04:17:00,
2013-03-05 23:27:00,34.6,26.8,29.98,ENE,76,0.0,0.0,73,0.00,,,0.00,Wunderground v.1.15,2013-03-06 04:27:00,
2013-03-05 23:32:00,34.3,26.5,29.98,ENE,76,0.0,0.0,73,0.00,,,0.00,Wunderground v.1.15,2013-03-06 04:32:00,
2013-03-05 23:42:00,33.8,26.7,29.97,ENE,76,0.0,0.0,75,0.00,,,0.00,Wunderground v.1.15,2013-03-06 04:42:00,
2013-03-05 23:47:00,33.6,27.2,29.97,ENE,76,0.0,0.0,77,0.00,,,0.00,Wunderground v.1.15,2013-03-06 04:47:00,
2013-03-05 23:57:00,34.0,27.2,29.97,ENE,76,0.0,0.0,76,0.00,,,0.00,Wunderground v.1.15,2013-03-06 04:57:00,